Location: Rostock
(54.0884°N, 12.1234°E)
Time: 18:29:26
(UTC+01:00)

ISS - Pass Details

Date: 11 November 2017
Orbit: 401 x 407 km, 51.6° (Epoch: 18 November)

Event Time Altitude Azimuth Distance (km) Brightness Sun altitude
Exits shadow 05:10:16 49° 162° (SSE) 529 -3.2 -20.7°
Drops below altitude 10° 05:13:06 10° 111° (ESE) 1,456 0.0 -20.2°
Sets 05:15:12 0° 106° (ESE) 2,314 1.5 -19.9°
